Regional Weather Roundup
Issued by NWS

Home | Current Version | Previous Version | Text Only | Print | Product List | Glossary Off
Versions: 1 2 3 4 5 6 7 8 9 10 11 12 13 14 15 16 17 18 19 20 21 22 23 24 25 26 27 28 29 30 31 32 33 34 35 36 37 38 39 40 41 42 43 44 45 46 47 48 49 50

000
ASUS43 KTOP 241259
RWRKS

WEATHER ROUNDUP FOR KANSAS
NATIONAL WEATHER SERVICE GOODLAND KS
800 AM CDT THU MAY 24 2018

NOTE:  "FAIR" INDICATES FEW OR NO CLOUDS BELOW 12,000 FEET WITH NO
SIGNIFICANT WEATHER AND/OR OBSTRUCTIONS TO VISIBILITY.

KSZ001>006-013>018-027>032-041>047-241400-
NORTHWEST KANSAS

CITY           SKY/WX    TMP DP  RH WIND       PRES   REMARKS
GOODLAND       MOSUNNY   63  54  72 S16G24    30.00R
HAYS           MOSUNNY   65  59  81 S7        30.00S
HILL CITY      CLOUDY    66  58  75 S7        29.99R
RUSSELL        CLOUDY    67  61  81 SE13      30.00R
$$

KSZ061>065-074>080-084>089-241400-
SOUTHWEST KANSAS

CITY           SKY/WX    TMP DP  RH WIND       PRES   REMARKS
DODGE CITY     CLOUDY    68  55  63 SW12      30.02R
GARDEN CITY    CLOUDY    64  56  75 S9        30.03R
GREAT BEND     MOSUNNY   66  60  81 SE8       30.02S
LIBERAL        MOSUNNY   65  55  70 SW20      30.03F
$$

KSZ066>073-081>083-090>101-241400-
SOUTHEAST KANSAS

CITY           SKY/WX    TMP DP  RH WIND       PRES   REMARKS
CHANUTE        MOSUNNY   70  67  90 SE9       30.10S
COFFEYVILLE    MOSUNNY   70  67  90 S7        30.10R
HUTCHINSON     CLOUDY    69  63  81 SE5       30.04S
MEDICINE LODGE   N/A     68  62  81 VRB3      30.03R
NEWTON         PTSUNNY   68  65  90 S8        30.06S
PARSONS        PTSUNNY   69  67  93 SE6       30.11S
WICHITA INTL   CLOUDY    69  63  81 SE7       30.03F
WICHITA JABRA  CLOUDY    70  63  78 S9        30.05S
WINFIELD       PTSUNNY   71  67  87 SE9       30.04F
$$

KSZ007>012-019>026-033>040-048>060-102>105-241400-
NORTHEAST KANSAS

CITY           SKY/WX    TMP DP  RH WIND       PRES   REMARKS
CONCORDIA      MOSUNNY   70  61  73 S9        30.03S
EMPORIA        CLOUDY    69  67  93 S9        30.07R
LAWRENCE       MOSUNNY   70  68  93 SE9       30.09R
MANHATTAN      MOSUNNY   70  67  90 E6        30.06R
OLATHE IND     MOSUNNY   70  66  87 SE8       30.11R
OLATHE EXE     MOSUNNY   68  66  93 S7        30.11R
SALINA         PTSUNNY   70  63  78 SE12      30.04S
TOPEKA BILLARD PTSUNNY   71  69  93 SE7       30.08R
TOPEKA FORBES  PTSUNNY   70  68  93 SE8       30.09R
$$




USA.gov is the U.S. government's official web portal to all federal, state and local government web resources and services.